HALOSAT (43549 NORAD) Tracking and Keplerian Element Data

This shows tracking and keplerian element data for the satellite.

Feedback or suggestion? Click here.




ElementValue
Catalog43549
NameHALOSAT
Epoch Orbit5636
Epoch Day193.53714592
Epoch Year2019
RAAN222.5612
Inclination51.6365
Eccentricity0.0004646
Argument of Perigee229.1973
Mean Anonmoly130.8618
Mean Motion15.61785315
Decay Rate7.468E-05
L11 43549U 98067NX 19193.53714592 .00007468 00000-0 90491-4 0 9996
L22 43549 51.6365 222.5612 0004646 229.1973 130.8618 15.61785315 56365

Live tracking and technical data element details for HALOSAT (NORAD 43549). HALOSAT can be tracked NOW for your location showing map with azimuth and elevation plus other details from your city location.

Track the satellite on the map from your city or location and see movement details for azimuth, elevation, latitude, longitude, range, height, and movement on the map or in text.







IsCatalogInMostPopularTable: catalog: 43549, numindb: 173
Update: records affected: 1



GetName: 43549 HALOSAT

Hit Count: updated at: Tue, 16 Jul 2019 14:01:03 GMT